Time,TemperatureF,DewpointF,PressureIn,WindDirection,WindDirectionDegrees,WindSpeedMPH,WindSpeedGustMPH,Humidity,HourlyPrecipIn,Conditions,Clouds,dailyrainin,SoftwareType,DateUTC
2013-01-07 00:02:00,15.0,10.0,-100.00,ENE,65,2.0,4.0,79,-99.99,,,-99.99,,2013-01-07 06:02:00,
2013-01-07 00:22:00,15.0,10.0,-100.00,ENE,65,2.0,4.0,79,-99.99,,,-99.99,,2013-01-07 06:22:00,
2013-01-07 00:32:00,15.0,10.0,-100.00,ENE,65,2.0,4.0,79,-99.99,,,-99.99,,2013-01-07 06:32:00,
2013-01-07 00:42:00,15.0,10.0,-100.00,ENE,65,2.0,4.0,79,-99.99,,,-99.99,,2013-01-07 06:42:00,
2013-01-07 00:52:00,15.0,10.0,-100.00,ENE,65,2.0,4.0,79,-99.99,,,-99.99,,2013-01-07 06:52:00,
2013-01-07 01:02:00,14.0,9.0,-100.00,NE,50,1.0,2.0,79,-99.99,,,-99.99,,2013-01-07 07:02:00,
2013-01-07 01:22:00,14.0,9.0,-100.00,NE,50,1.0,2.0,79,-99.99,,,-99.99,,2013-01-07 07:22:00,
2013-01-07 01:33:00,14.0,9.0,-100.00,NE,50,1.0,2.0,79,-99.99,,,-99.99,,2013-01-07 07:33:00,
2013-01-07 01:43:00,14.0,9.0,-100.00,NE,50,1.0,2.0,79,-99.99,,,-99.99,,2013-01-07 07:43:00,
2013-01-07 01:53:00,14.0,9.0,-100.00,NE,50,1.0,2.0,79,-99.99,,,-99.99,,2013-01-07 07:53:00,
2013-01-07 02:22:00,14.0,8.0,-100.00,NE,45,1.0,2.0,79,-99.99,,,-99.99,,2013-01-07 08:22:00,
2013-01-07 02:32:00,14.0,8.0,-100.00,NE,45,1.0,2.0,79,-99.99,,,-99.99,,2013-01-07 08:32:00,
2013-01-07 02:42:00,14.0,8.0,-100.00,NE,45,1.0,2.0,79,-99.99,,,-99.99,,2013-01-07 08:42:00,
2013-01-07 02:52:00,14.0,8.0,-100.00,NE,45,1.0,2.0,79,-99.99,,,-99.99,,2013-01-07 08:52:00,
2013-01-07 03:02:00,14.0,8.0,-100.00,NE,55,1.0,3.0,79,-99.99,,,-99.99,,2013-01-07 09:02:00,
2013-01-07 03:23:00,14.0,8.0,-100.00,NE,55,1.0,3.0,79,-99.99,,,-99.99,,2013-01-07 09:23:00,
2013-01-07 03:32:00,14.0,8.0,-100.00,NE,55,1.0,3.0,79,-99.99,,,-99.99,,2013-01-07 09:32:00,
2013-01-07 03:42:00,14.0,8.0,-100.00,NE,55,1.0,3.0,79,-99.99,,,-99.99,,2013-01-07 09:42:00,
2013-01-07 03:52:00,14.0,8.0,-100.00,NE,55,1.0,3.0,79,-99.99,,,-99.99,,2013-01-07 09:52:00,
2013-01-07 04:00:00,14.0,9.0,-100.00,ENE,60,2.0,6.0,79,-99.99,,,-99.99,,2013-01-07 10:00:00,
2013-01-07 04:22:00,14.0,9.0,-100.00,ENE,60,2.0,6.0,79,-99.99,,,-99.99,,2013-01-07 10:22:00,
2013-01-07 04:33:00,14.0,9.0,-100.00,ENE,60,2.0,6.0,79,-99.99,,,-99.99,,2013-01-07 10:33:00,
2013-01-07 04:43:00,14.0,9.0,-100.00,ENE,60,2.0,6.0,79,-99.99,,,-99.99,,2013-01-07 10:43:00,
2013-01-07 04:52:00,14.0,9.0,-100.00,ENE,60,2.0,6.0,79,-99.99,,,-99.99,,2013-01-07 10:52:00,
2013-01-07 05:23:00,14.0,9.0,-100.00,NE,50,4.0,7.0,79,-99.99,,,-99.99,,2013-01-07 11:23:00,
2013-01-07 05:33:00,15.0,9.0,-100.00,NE,55,4.0,7.0,79,-99.99,,,-99.99,,2013-01-07 11:33:00,
2013-01-07 05:43:00,15.0,9.0,-100.00,NE,55,4.0,7.0,79,-99.99,,,-99.99,,2013-01-07 11:43:00,
2013-01-07 05:53:00,15.0,9.0,-100.00,NE,55,4.0,7.0,79,-99.99,,,-99.99,,2013-01-07 11:53:00,
2013-01-07 06:02:00,17.0,12.0,-100.00,NE,55,5.0,12.0,79,-99.99,,,-99.99,,2013-01-07 12:02:00,
2013-01-07 06:03:00,15.0,9.0,-100.00,NE,55,4.0,7.0,79,-99.99,,,-99.99,,2013-01-07 12:03:00,
2013-01-07 06:23:00,17.0,12.0,-100.00,NE,55,5.0,12.0,79,-99.99,,,-99.99,,2013-01-07 12:23:00,
2013-01-07 06:33:00,17.0,12.0,-100.00,NE,55,5.0,12.0,79,-99.99,,,-99.99,,2013-01-07 12:33:00,
2013-01-07 06:43:00,17.0,12.0,-100.00,NE,55,5.0,12.0,79,-99.99,,,-99.99,,2013-01-07 12:43:00,
2013-01-07 06:53:00,17.0,12.0,-100.00,NE,55,5.0,12.0,79,-99.99,,,-99.99,,2013-01-07 12:53:00,
2013-01-07 07:23:00,18.0,13.0,-100.00,ENE,70,6.0,13.0,79,-99.99,,,-99.99,,2013-01-07 13:23:00,
2013-01-07 07:31:00,19.0,13.0,-100.00,ENE,70,6.0,11.0,79,-99.99,,,-99.99,,2013-01-07 13:31:00,
2013-01-07 07:33:00,18.0,13.0,-100.00,ENE,70,6.0,13.0,79,-99.99,,,-99.99,,2013-01-07 13:33:00,
2013-01-07 07:43:00,18.0,13.0,-100.00,ENE,70,6.0,13.0,79,-99.99,,,-99.99,,2013-01-07 13:43:00,
2013-01-07 07:53:00,19.0,13.0,-100.00,ENE,70,6.0,11.0,79,-99.99,,,-99.99,,2013-01-07 13:53:00,
2013-01-07 08:03:00,19.0,13.0,-100.00,ENE,70,6.0,11.0,79,-99.99,,,-99.99,,2013-01-07 14:03:00,
2013-01-07 08:12:00,19.0,13.0,-100.00,ENE,70,6.0,11.0,79,-99.99,,,-99.99,,2013-01-07 14:12:00,
2013-01-07 08:22:00,19.0,13.0,-100.00,ENE,70,6.0,11.0,79,-99.99,,,-99.99,,2013-01-07 14:22:00,
2013-01-07 09:23:00,25.0,18.0,-100.00,NNE,30,6.0,10.0,76,-99.99,,,-99.99,,2013-01-07 15:23:00,
2013-01-07 09:33:00,25.0,18.0,-100.00,NNE,30,6.0,10.0,76,-99.99,,,-99.99,,2013-01-07 15:33:00,
2013-01-07 09:43:00,26.0,18.0,-100.00,ENE,70,7.0,11.0,74,-99.99,,,-99.99,,2013-01-07 15:43:00,
2013-01-07 09:53:00,26.0,18.0,-100.00,ENE,70,7.0,11.0,74,-99.99,,,-99.99,,2013-01-07 15:53:00,
2013-01-07 10:02:00,26.0,18.0,-100.00,ENE,70,7.0,11.0,74,-99.99,,,-99.99,,2013-01-07 16:02:00,
2013-01-07 10:12:00,26.0,18.0,-100.00,ENE,70,7.0,11.0,74,-99.99,,,-99.99,,2013-01-07 16:12:00,
2013-01-07 10:43:00,29.0,18.0,-100.00,ENE,75,9.0,17.0,64,-99.99,,,-99.99,,2013-01-07 16:43:00,
2013-01-07 10:53:00,29.0,18.0,-100.00,ENE,75,9.0,17.0,64,-99.99,,,-99.99,,2013-01-07 16:53:00,
2013-01-07 11:02:00,29.0,18.0,-100.00,ENE,75,9.0,17.0,64,-99.99,,,-99.99,,2013-01-07 17:02:00,
2013-01-07 11:12:00,29.0,18.0,-100.00,ENE,75,9.0,17.0,64,-99.99,,,-99.99,,2013-01-07 17:12:00,
2013-01-07 11:23:00,31.0,18.0,-100.00,ENE,75,11.0,24.0,59,-99.99,,,-99.99,,2013-01-07 17:23:00,
2013-01-07 11:33:00,31.0,18.0,-100.00,ENE,75,11.0,24.0,59,-99.99,,,-99.99,,2013-01-07 17:33:00,
2013-01-07 11:43:00,31.0,18.0,-100.00,ENE,75,11.0,24.0,59,-99.99,,,-99.99,,2013-01-07 17:43:00,
2013-01-07 11:53:00,31.0,18.0,-100.00,ENE,75,11.0,24.0,59,-99.99,,,-99.99,,2013-01-07 17:53:00,
2013-01-07 13:02:00,35.0,21.0,-100.00,ENE,75,9.0,22.0,57,-99.99,,,-99.99,,2013-01-07 19:02:00,
2013-01-07 13:23:00,35.0,21.0,-100.00,ENE,75,9.0,22.0,57,-99.99,,,-99.99,,2013-01-07 19:23:00,
2013-01-07 13:33:00,35.0,21.0,-100.00,ENE,75,9.0,22.0,57,-99.99,,,-99.99,,2013-01-07 19:33:00,
2013-01-07 13:43:00,35.0,21.0,-100.00,ENE,75,9.0,22.0,57,-99.99,,,-99.99,,2013-01-07 19:43:00,
2013-01-07 13:53:00,35.0,21.0,-100.00,ENE,75,9.0,22.0,57,-99.99,,,-99.99,,2013-01-07 19:53:00,
2013-01-07 15:02:00,36.0,23.0,-100.00,ENE,70,8.0,13.0,59,-99.99,,,-99.99,,2013-01-07 21:02:00,
2013-01-07 15:23:00,36.0,23.0,-100.00,ENE,70,8.0,13.0,59,-99.99,,,-99.99,,2013-01-07 21:23:00,
2013-01-07 15:33:00,36.0,23.0,-100.00,ENE,70,8.0,13.0,59,-99.99,,,-99.99,,2013-01-07 21:33:00,
2013-01-07 15:43:00,36.0,23.0,-100.00,ENE,70,8.0,13.0,59,-99.99,,,-99.99,,2013-01-07 21:43:00,
2013-01-07 15:53:00,36.0,23.0,-100.00,ENE,70,8.0,13.0,59,-99.99,,,-99.99,,2013-01-07 21:53:00,
2013-01-07 17:02:00,33.0,24.0,-100.00,ENE,70,2.0,6.0,68,-99.99,,,-99.99,,2013-01-07 23:02:00,
2013-01-07 17:23:00,33.0,24.0,-100.00,ENE,70,2.0,6.0,68,-99.99,,,-99.99,,2013-01-07 23:23:00,
2013-01-07 17:33:00,33.0,24.0,-100.00,ENE,70,2.0,6.0,68,-99.99,,,-99.99,,2013-01-07 23:33:00,
2013-01-07 17:43:00,33.0,24.0,-100.00,ENE,70,2.0,6.0,68,-99.99,,,-99.99,,2013-01-07 23:43:00,
2013-01-07 17:53:00,33.0,24.0,-100.00,ENE,70,2.0,6.0,68,-99.99,,,-99.99,,2013-01-07 23:53:00,
2013-01-07 19:02:00,32.0,24.0,-100.00,ENE,75,2.0,4.0,73,-99.99,,,-99.99,,2013-01-08 01:02:00,
2013-01-07 19:22:00,32.0,24.0,-100.00,ENE,75,2.0,4.0,73,-99.99,,,-99.99,,2013-01-08 01:22:00,
2013-01-07 19:33:00,32.0,24.0,-100.00,ENE,75,2.0,4.0,73,-99.99,,,-99.99,,2013-01-08 01:33:00,
2013-01-07 19:42:00,32.0,24.0,-100.00,ENE,75,2.0,4.0,73,-99.99,,,-99.99,,2013-01-08 01:42:00,
2013-01-07 19:52:00,32.0,24.0,-100.00,ENE,75,2.0,4.0,73,-99.99,,,-99.99,,2013-01-08 01:52:00,
2013-01-07 21:02:00,30.0,24.0,-100.00,ENE,75,5.0,7.0,78,-99.99,,,-99.99,,2013-01-08 03:02:00,
2013-01-07 21:22:00,30.0,24.0,-100.00,ENE,75,5.0,7.0,78,-99.99,,,-99.99,,2013-01-08 03:22:00,
2013-01-07 21:33:00,30.0,24.0,-100.00,ENE,75,5.0,7.0,78,-99.99,,,-99.99,,2013-01-08 03:33:00,
2013-01-07 21:43:00,30.0,24.0,-100.00,ENE,75,5.0,7.0,78,-99.99,,,-99.99,,2013-01-08 03:43:00,
2013-01-07 21:53:00,30.0,24.0,-100.00,ENE,75,5.0,7.0,78,-99.99,,,-99.99,,2013-01-08 03:53:00,
2013-01-07 23:22:00,30.0,24.0,-100.00,ENE,60,3.0,4.0,79,-99.99,,,-99.99,,2013-01-08 05:22:00,
2013-01-07 23:33:00,30.0,24.0,-100.00,ENE,60,3.0,4.0,79,-99.99,,,-99.99,,2013-01-08 05:33:00,
2013-01-07 23:43:00,30.0,24.0,-100.00,ENE,60,3.0,4.0,79,-99.99,,,-99.99,,2013-01-08 05:43:00,
2013-01-07 23:53:00,30.0,24.0,-100.00,ENE,60,3.0,4.0,79,-99.99,,,-99.99,,2013-01-08 05:53:00,